Regional Weather Roundup
Issued by NWS Charleston, SC

Current Version | Previous Version | Text Only | Print | Product List | Glossary Off
Versions: 1 2 3 4 5 6 7 8 9 10 11 12 13 14 15 16 17 18 19 20 21 22 23 24 25 26 27 28 29 30 31 32 33 34 35 36 37 38 39 40 41 42 43 44

000
ASUS42 KCHS 280427
RWRCHS

REGIONAL WEATHER ROUNDUP
NATIONAL WEATHER SERVICE CHARLESTON SC
1200 AM EDT TUE MAR 28 2017

NOTE: "FAIR" INDICATES FEW OR NO CLOUDS BELOW 12,000 FEET WITH NO
SIGNIFICANT WEATHER AND/OR OBSTRUCTIONS TO VISIBILITY.

NOT ALL STATIONS ARE QUALITY CONTROLLED. USE DATA WITH CAUTION...
ESPECIALLY DEWPOINT OBSERVATIONS.

SCZ027-030-031-034>040-042>050-280500-
...SOUTHEAST SOUTH CAROLINA...

CITY           SKY/WX    TMP DP  RH WIND       PRES   REMARKS
N CHARLESTON   CLOUDY    66  59  78 S8        30.04S
WATERFRONT PRK   N/A     66  62  87 VRB2      30.05R
JOHNS ISLAND   CLOUDY    66  63  88 S6        30.04F
PINOPOLIS        N/A     64  59  82 CALM      29.95S
MONCKS CORNER  CLOUDY    63  57  82 S3        30.03F
SUMMERVILLE    MOCLDY    64  59  82 S6        30.04F
BEAUFORT MCAS  CLEAR     67  64  90 S5        30.04S
BEAUFORT ARPT  FAIR      64  61  88 S5        30.03F
HILTON HEAD IS CLEAR     66  63  88 VRB7      30.05S
WALTERBORO     CLEAR     61  59  94 CALM      30.04R
ALLENDALE      MOCLDY    64  59  82 S6        30.01F

...SOUTHERN MIDLANDS AND PEE DEE...

CITY           SKY/WX    TMP DP  RH WIND       PRES   REMARKS
GEORGETOWN     MOCLDY    57  55  94 CALM      30.05F
KINGSTREE      FAIR      63  55  77 SE6       30.02F
ORANGEBURG     CLOUDY    66  58  75 S9        30.02S
BARNWELL       FAIR      68  61  77 S6        30.02S
AIKEN          FAIR      64  59  82 SE7       30.02F
MANNING        CLOUDY    64  57  77 S7        30.02S
COLUMBIA       PTCLDY    69  59  70 S8        29.99R
SUMTER         CLEAR     65  57  74 S6        29.98S
FLORENCE       MOCLDY    65  59  81 S10       30.01F
MYRTLE BEACH   MOCLDY    65  60  84 S7        30.05F
N MYRTLE BEACH CLOUDY    67  61  81 SW7       30.04S

$$

GAZ063-065-086>088-099>101-113>116-118-119-134>141-150-280500-
...SOUTHEAST GEORGIA...

CITY           SKY/WX    TMP DP  RH WIND       PRES   REMARKS
SAVANNAH ARPT  PTCLDY    65  58  78 S9        30.04R
HUNTER AAF     CLEAR     66  61  84 CALM      30.02R
FORT STEWART   PTCLDY    64  58  81 E6        30.01S
STATESBORO     CLOUDY    68  61  76 S9        30.03S
SYLVANIA       CLOUDY   N/A N/A N/A S3        30.04R
CLAXTON        MOCLDY   N/A N/A N/A SE3       30.03S

...CSRA...CENTRAL AND FAR SOUTHEAST GEORGIA...

CITY           SKY/WX    TMP DP  RH WIND       PRES   REMARKS
THOMSON        CLOUDY    68  59  71 SW8       30.02S
AUGUSTA-BUSH   MOCLDY    71  62  73 S9        29.98S
AUGUSTA-DANIEL MOCLDY    73  59  61 S9        29.99S
SWAINSBORO     MOCLDY    70  55  60 S12G17    30.01F
VIDALIA        CLOUDY    70  59  68 S5        30.03S
EASTMAN        FAIR      70  52  52 CALM      30.03S
HAZLEHURST     FAIR      70  61  71 S5        30.02S
ALMA           CLOUDY    69  59  70 S6        30.03R
WAYCROSS       CLOUDY    72  62  71 S8        30.04S
JESUP          CLOUDY    66  59  77 CALM      30.05R
BAXLEY         CLOUDY    70  63  78 S5        30.03S
BRUNSWICK      MOCLDY    68  64  88 SE6       30.05R
SAINT SIMONS   CLOUDY    68  63  84 S7        30.04S

$$

SCZ027-028-034-036>038-045-046-048>050-GAZ119-141-280500-
...LAKE AND SUPPLEMENTAL COASTAL OBSERVATIONS...

STATION/POSITION TIME  TEMP    WIND        PRES    WAVE   SWELL
                       AIR SEA DIR/SP/G            HT/PER HT/PER/DIR
                 (UTC) (F)     (DEG/KT/KT) (MB)    (FT/S) (FT/S/D)
WINYAH BAY       NOT AVBL
LAKE MURRAY      0350   67     170/  9/ 12 1014.9S
ACE BASIN NERRS  NOT AVBL
FORT PULASKI     0400   66 64  200/  4/  6 1017.4
SAPELO ISLAND    0300   67     150/  5     1017.0

$$

ANZ835-935-AMZ111-154-330-350-352-354-370-450-454-472-280500-
...C-MAN AND BUOY OBSERVATIONS...

STATION/POSITION TIME  TEMP    WIND        PRES    WAVE   SWELL
                       AIR SEA DIR/SP/G            HT/PER HT/PER/DIR
                 (UTC) (F)     (DEG/KT/KT) (MB)    (FT/S) (FT/S/D)
BUOY 41004       0350   72 71  180/ 10/ 12 1017.3R   5/10   5/130/10
BUOY 41008       0350   65 63  180/  6/  8 1017.1F   3/10   3/110/10
FOLLY BEACH CMAN 0400   65     180/  6/  7 1017.9F
CAPERS NEARSHORE 0308   64     200/  4/  6 1017.4R
FRIPP NEARSHORE  0408   64 62  190/  8/ 10 1017.0F


STATION/POSITION TIME  TEMP    WIND        PRES    WAVE   SWELL
                       AIR SEA DIR/SP/G            HT/PER HT/PER/DIR
                 (UTC) (F)     (DEG/KT/KT) (MB)    (FT/S) (FT/S/D)
5E ST. MARYS GA  0400      67                N/A     3/11   2/110/11
FRYING PAN BUOY  0400   72 75  180/ 10/ 14 1017.4
BUOY 41025       0350   71 74  190/ 14/ 17 1017.3F   4/ 9   3/130/ 9
CAPE LOOKOUT NC  0400   66     200/  7/  8 1017.1F
BUOY 41002       0350   68 72   90/  6/ 10 1018.7F   6/10   7/110/10
BUOY 41010       NOT AVBL
ST AUGUSTINE FL  0400   69 71  150/  8/  9 1018.5F


$$




USA.gov is the U.S. government's official web portal to all federal, state and local government web resources and services.